User: anonymous   Login
Location: Oshawa
(43.9000°N, 78.8670°W)
Time: 16:20:36
(UTC-04:00)
Language:

Hubble Space Telescope - Orbit

View from above orbital plane
View from above orbital plane
View from above satellite
View from above satellite

Ground track
Ground track

The orbit data is extracted from the following two-line orbital elements,

1 20580U 90037B   17267.90609505 +.00000640 +00000-0 +28441-4 0  9994
2 20580 028.4697 068.5581 0002776 162.2236 328.6132 15.08858732305279
Epoch (UTC): 24 September 2017 21:44:46
Eccentricity: 0.0002776
inclination: 28.4697°
perigee height: 538 km
apogee height: 541 km
right ascension of ascending node: 68.5581°
argument of perigee: 162.2236°
revolutions per day: 15.08858732
mean anomaly at epoch: 328.6132°
orbit number at epoch: 30527

The dashed part of the orbit path shows where the satellite is in the earth's shadow,  

DLR